| time (UTC) | temp C | wind direction | speed KPH | gust KPH | rain 1hr cm | rain 24hr cm | rain mn cm | humidity % | barometer mb |
| 20260905133823 | 19 | 52 | 3.2 | 6.4 | 0.00 | 0.15 | 0.00 | 87 | 1015.4 |
| 20260905132818 | 19 | 51 | 3.2 | 8.0 | 0.00 | 0.15 | 0.00 | 88 | 1015.2 |
| 20260905131818 | 19 | 64 | 0.0 | 8.0 | 0.00 | 0.15 | 0.00 | 89 | 1015.5 |
| 20260905130816 | 18 | 49 | 0.0 | 0.0 | 0.00 | 0.18 | 0.00 | 89 | 1015.4 |
| 20260905125818 | 18 | 49 | 0.0 | 0.0 | 0.00 | 0.18 | 0.00 | 90 | 1015.1 |
| 20260905124817 | 18 | 51 | 0.0 | 6.4 | 0.00 | 0.20 | 0.00 | 91 | 1015.2 |
| 20260905123818 | 18 | 51 | 0.0 | 6.4 | 0.00 | 0.20 | 0.00 | 92 | 1015.2 |
| 20260905122817 | 18 | 40 | 0.0 | 6.4 | 0.00 | 0.20 | 0.00 | 92 | 1015.1 |
| 20260905121816 | 18 | 49 | 3.2 | 6.4 | 0.00 | 0.20 | 0.00 | 93 | 1014.9 |
| 20260905120820 | 18 | 57 | 0.0 | 8.0 | 0.00 | 0.20 | 0.00 | 93 | 1015.0 |
| 20260905115815 | 18 | 49 | 0.0 | 6.4 | 0.00 | 0.20 | 0.00 | 93 | 1014.9 |
| 20260905114815 | 18 | 49 | 0.0 | 8.0 | 0.00 | 0.20 | 0.00 | 93 | 1014.9 |
| 20260905113813 | 18 | 54 | 0.0 | 6.4 | 0.00 | 0.20 | 0.00 | 94 | 1014.8 |
| 20260905112810 | 18 | 41 | 3.2 | 8.0 | 0.00 | 0.20 | 0.00 | 93 | 1014.8 |
| 20260905111810 | 18 | 42 | 0.0 | 6.4 | 0.00 | 0.20 | 0.00 | 93 | 1014.8 |
| 20260905110811 | 18 | 42 | 0.0 | 6.4 | 0.00 | 0.20 | 0.00 | 93 | 1014.7 |
| 20260905105813 | 18 | 30 | 0.0 | 0.0 | 0.00 | 0.20 | 0.00 | 93 | 1014.6 |
| 20260905104812 | 18 | 30 | 0.0 | 0.0 | 0.00 | 0.20 | 0.00 | 94 | 1014.7 |
| 20260905103812 | 18 | 11 | 0.0 | 0.0 | 0.00 | 0.20 | 0.00 | 93 | 1014.7 |
| 20260905102808 | 18 | 11 | 0.0 | 0.0 | 0.00 | 0.20 | 0.00 | 94 | 1014.7 |
| 20260905101807 | 18 | 329 | 0.0 | 0.0 | 0.00 | 0.20 | 0.00 | 94 | 1014.6 |
| 20260905100808 | 18 | 49 | 0.0 | 0.0 | 0.00 | 0.20 | 0.00 | 94 | 1014.4 |
| 20260905095809 | 18 | 49 | 0.0 | 0.0 | 0.00 | 0.20 | 0.00 | 93 | 1014.5 |
| 20260905094807 | 18 | 49 | 0.0 | 0.0 | 0.00 | 0.20 | 0.00 | 93 | 1014.4 |
| 20260905093806 | 18 | 49 | 0.0 | 0.0 | 0.00 | 0.20 | 0.00 | 93 | 1014.7 |
| 20260905092807 | 19 | 49 | 0.0 | 0.0 | 0.00 | 0.20 | 0.00 | 93 | 1014.8 |
| 20260905091808 | 19 | 49 | 0.0 | 0.0 | 0.00 | 0.20 | 0.00 | 93 | 1014.7 |
| 20260905090813 | 19 | 49 | 0.0 | 0.0 | 0.00 | 0.20 | 0.00 | 93 | 1014.6 |
| 20260905085807 | 19 | 49 | 0.0 | 0.0 | 0.00 | 0.20 | 0.00 | 93 | 1014.3 |
| 20260905084805 | 19 | 49 | 0.0 | 0.0 | 0.00 | 0.20 | 0.00 | 93 | 1014.3 |
| 20260905083807 | 19 | 49 | 0.0 | 0.0 | 0.00 | 0.20 | 0.00 | 93 | 1014.2 |
| 20260905082803 | 19 | 49 | 0.0 | 0.0 | 0.00 | 0.20 | 0.00 | 93 | 1014.1 |
| 20260905081804 | 19 | 49 | 0.0 | 0.0 | 0.00 | 0.20 | 0.00 | 93 | 1013.9 |
| 20260905080806 | 19 | 48 | 0.0 | 0.0 | 0.00 | 0.20 | 0.00 | 93 | 1014.0 |
| 20260905075801 | 19 | 48 | 0.0 | 0.0 | 0.00 | 0.20 | 0.00 | 93 | 1014.0 |
| 20260905074803 | 19 | 48 | 0.0 | 0.0 | 0.00 | 0.20 | 0.00 | 93 | 1014.5 |
| 20260905073801 | 19 | 48 | 0.0 | 0.0 | 0.00 | 0.20 | 0.00 | 93 | 1014.5 |
| 20260905072803 | 19 | 48 | 0.0 | 0.0 | 0.00 | 0.20 | 0.00 | 93 | 1014.2 |
| 20260905071803 | 19 | 48 | 0.0 | 0.0 | 0.00 | 0.20 | 0.00 | 93 | 1014.0 |
| 20260905070802 | 19 | 48 | 0.0 | 0.0 | 0.00 | 0.20 | 0.00 | 93 | 1014.2 |
| 20260905065757 | 19 | 48 | 0.0 | 6.4 | 0.00 | 0.20 | 0.00 | 92 | 1014.2 |
| 20260905064755 | 19 | 48 | 0.0 | 6.4 | 0.00 | 0.20 | 0.00 | 92 | 1013.7 |
| 20260905063758 | 19 | 48 | 3.2 | 8.0 | 0.00 | 0.20 | 0.00 | 92 | 1013.7 |
| 20260905062758 | 19 | 41 | 0.0 | 8.0 | 0.00 | 0.20 | 0.00 | 92 | 1013.9 |
| 20260905061754 | 19 | 42 | 3.2 | 6.4 | 0.00 | 0.20 | 0.00 | 92 | 1014.0 |
| 20260905060755 | 19 | 53 | 0.0 | 6.4 | 0.00 | 0.20 | 0.00 | 92 | 1014.2 |
| 20260905055750 | 19 | 42 | 0.0 | 0.0 | 0.00 | 0.20 | 0.00 | 92 | 1014.3 |
| 20260905054750 | 19 | 45 | 0.0 | 0.0 | 0.00 | 0.20 | 0.00 | 92 | 1014.6 |
| 20260905053752 | 19 | 45 | 0.0 | 0.0 | 0.00 | 0.20 | 0.00 | 92 | 1014.7 |
| 20260905052750 | 20 | 45 | 0.0 | 0.0 | 0.00 | 0.20 | 0.00 | 92 | 1014.6 |
| 20260905051751 | 20 | 45 | 0.0 | 0.0 | 0.00 | 0.20 | 0.00 | 92 | 1014.4 |
| 20260905050751 | 20 | 45 | 0.0 | 0.0 | 0.00 | 0.20 | 0.00 | 92 | 1014.3 |
| 20260905045754 | 20 | 45 | 0.0 | 0.0 | 0.00 | 0.20 | 0.00 | 92 | 1014.4 |
| 20260905044749 | 20 | 45 | 0.0 | 0.0 | 0.00 | 0.20 | 0.00 | 92 | 1014.4 |
| 20260905043752 | 20 | 45 | 0.0 | 0.0 | 0.00 | 0.20 | 0.00 | 92 | 1014.5 |
| 20260905042744 | 20 | 45 | 0.0 | 0.0 | 0.00 | 0.20 | 0.00 | 92 | 1014.5 |
| 20260905041745 | 20 | 45 | 0.0 | 0.0 | 0.00 | 0.20 | 0.00 | 92 | 1014.5 |
| 20260905040743 | 20 | 45 | 0.0 | 0.0 | 0.00 | 0.20 | 0.00 | 92 | 1014.6 |
| 20260905035744 | 20 | 45 | 0.0 | 0.0 | 0.00 | 0.20 | 0.20 | 92 | 1014.6 |
| 20260905034741 | 20 | 45 | 0.0 | 0.0 | 0.00 | 0.20 | 0.20 | 92 | 1014.7 |
| 20260905033744 | 20 | 45 | 0.0 | 0.0 | 0.00 | 0.20 | 0.20 | 92 | 1014.9 |
| 20260905032744 | 21 | 45 | 0.0 | 0.0 | 0.00 | 0.20 | 0.20 | 92 | 1014.9 |
| 20260905031740 | 21 | 45 | 0.0 | 0.0 | 0.00 | 0.20 | 0.20 | 92 | 1015.2 |
| 20260905030737 | 21 | 41 | 0.0 | 0.0 | 0.00 | 0.20 | 0.20 | 92 | 1015.4 |
| 20260905025736 | 21 | 41 | 0.0 | 0.0 | 0.00 | 0.20 | 0.20 | 92 | 1015.2 |
| 20260905024736 | 21 | 46 | 0.0 | 3.2 | 0.00 | 0.20 | 0.20 | 92 | 1015.1 |
| 20260905023735 | 21 | 46 | 0.0 | 6.4 | 0.00 | 0.20 | 0.20 | 92 | 1015.0 |
| 20260905022732 | 21 | 46 | 0.0 | 6.4 | 0.00 | 0.20 | 0.20 | 92 | 1015.0 |
| 20260905021730 | 21 | 46 | 0.0 | 3.2 | 0.00 | 0.20 | 0.20 | 92 | 1015.1 |
| 20260905020733 | 21 | 46 | 0.0 | 6.4 | 0.00 | 0.20 | 0.20 | 91 | 1015.1 |
| 20260905015732 | 21 | 52 | 0.0 | 0.0 | 0.00 | 0.20 | 0.20 | 91 | 1015.1 |
| 20260905014730 | 21 | 52 | 0.0 | 3.2 | 0.00 | 0.20 | 0.20 | 91 | 1015.4 |
| 20260905013729 | 21 | 52 | 0.0 | 3.2 | 0.00 | 0.20 | 0.20 | 91 | 1015.2 |
| 20260905012729 | 22 | 52 | 3.2 | 8.0 | 0.00 | 0.20 | 0.20 | 91 | 1015.2 |
| 20260905011733 | 22 | 54 | 3.2 | 8.0 | 0.00 | 0.20 | 0.20 | 90 | 1015.1 |
| 20260905010731 | 22 | 5 | 3.2 | 8.0 | 0.00 | 0.20 | 0.20 | 90 | 1015.0 |
| 20260905005725 | 22 | 73 | 3.2 | 8.0 | 0.00 | 0.20 | 0.20 | 89 | 1014.7 |
| 20260905004722 | 23 | 51 | 6.4 | 8.0 | 0.00 | 0.20 | 0.20 | 88 | 1014.7 |
| 20260905003722 | 23 | 42 | 3.2 | 6.4 | 0.00 | 0.20 | 0.20 | 88 | 1014.7 |
| 20260905002723 | 23 | 34 | 0.0 | 8.0 | 0.00 | 0.20 | 0.20 | 88 | 1014.6 |
| 20260905001722 | 23 | 329 | 0.0 | 0.0 | 0.00 | 0.20 | 0.20 | 87 | 1014.5 |
| 20260905000722 | 23 | 329 | 0.0 | 0.0 | 0.00 | 0.20 | 0.20 | 86 | 1014.3 |
| 20260904235719 | 24 | 329 | 0.0 | 0.0 | 0.00 | 0.20 | 0.20 | 87 | 1014.3 |
| 20260904234719 | 24 | 329 | 0.0 | 0.0 | 0.00 | 0.20 | 0.20 | 86 | 1014.3 |
| 20260904233729 | 24 | 329 | 0.0 | 0.0 | 0.00 | 0.20 | 0.20 | 86 | 1014.3 |
| 20260904232721 | 24 | 329 | 0.0 | 0.0 | 0.00 | 0.20 | 0.20 | 86 | 1014.1 |
| 20260904231716 | 24 | 329 | 0.0 | 0.0 | 0.00 | 0.20 | 0.20 | 86 | 1014.1 |
| 20260904230714 | 24 | 329 | 0.0 | 0.0 | 0.00 | 0.20 | 0.20 | 86 | 1013.9 |
| 20260904225716 | 24 | 329 | 0.0 | 0.0 | 0.00 | 0.20 | 0.20 | 86 | 1013.9 |
| 20260904224713 | 24 | 317 | 0.0 | 0.0 | 0.00 | 0.20 | 0.20 | 85 | 1013.7 |
| 20260904223713 | 24 | 317 | 0.0 | 0.0 | 0.00 | 0.20 | 0.20 | 85 | 1013.6 |
| 20260904222719 | 24 | 316 | 0.0 | 6.4 | 0.00 | 0.20 | 0.20 | 85 | 1013.7 |
| 20260904221716 | 24 | 344 | 0.0 | 6.4 | 0.00 | 0.20 | 0.20 | 85 | 1013.6 |
| 20260904220715 | 24 | 319 | 0.0 | 6.4 | 0.00 | 0.20 | 0.20 | 84 | 1013.6 |
| 20260904215712 | 24 | 310 | 0.0 | 8.0 | 0.00 | 0.20 | 0.20 | 84 | 1013.6 |
| 20260904214715 | 24 | 327 | 3.2 | 8.0 | 0.00 | 0.20 | 0.20 | 84 | 1013.5 |
| 20260904213714 | 24 | 325 | 0.0 | 6.4 | 0.00 | 0.20 | 0.20 | 84 | 1013.4 |
| 20260904212711 | 24 | 339 | 3.2 | 11.3 | 0.00 | 0.20 | 0.20 | 83 | 1013.2 |
| 20260904211710 | 24 | 287 | 3.2 | 8.0 | 0.00 | 0.20 | 0.20 | 83 | 1013.3 |
| 20260904210711 | 24 | 325 | 6.4 | 14.5 | 0.00 | 0.20 | 0.20 | 83 | 1013.3 |
| 20260904205714 | 24 | 320 | 6.4 | 14.5 | 0.00 | 0.20 | 0.20 | 83 | 1013.2 |
| 20260904204712 | 24 | 319 | 6.4 | 11.3 | 0.00 | 0.20 | 0.20 | 82 | 1013.1 |
| 20260904203716 | 25 | 336 | 3.2 | 8.0 | 0.00 | 0.20 | 0.20 | 83 | 1013.1 |
| 20260904202713 | 24 | 309 | 3.2 | 11.3 | 0.00 | 0.20 | 0.20 | 83 | 1013.0 |
| 20260904201709 | 24 | 326 | 3.2 | 11.3 | 0.00 | 0.20 | 0.20 | 83 | 1013.0 |
| 20260904200711 | 24 | 334 | 3.2 | 8.0 | 0.00 | 0.20 | 0.20 | 85 | 1013.3 |
| 20260904195714 | 24 | 170 | 3.2 | 8.0 | 0.00 | 0.20 | 0.20 | 85 | 1013.3 |
| 20260904194712 | 23 | 318 | 0.0 | 6.4 | 0.00 | 0.20 | 0.20 | 86 | 1013.5 |
| 20260904193712 | 23 | 182 | 0.0 | 8.0 | 0.00 | 0.20 | 0.20 | 86 | 1013.7 |
| 20260904192710 | 23 | 195 | 3.2 | 17.7 | 0.00 | 0.20 | 0.20 | 86 | 1013.8 |
| 20260904191709 | 23 | 229 | 3.2 | 11.3 | 0.00 | 0.20 | 0.20 | 88 | 1013.9 |
| 20260904190711 | 23 | 209 | 3.2 | 14.5 | 0.00 | 0.20 | 0.20 | 87 | 1013.9 |
| 20260904185711 | 23 | 205 | 0.0 | 8.0 | 0.00 | 0.20 | 0.20 | 88 | 1013.9 |
| 20260904184709 | 23 | 193 | 3.2 | 11.3 | 0.00 | 0.20 | 0.20 | 88 | 1014.1 |
| 20260904183710 | 23 | 164 | 3.2 | 11.3 | 0.00 | 0.20 | 0.20 | 88 | 1014.0 |
| 20260904182711 | 23 | 200 | 0.0 | 6.4 | 0.00 | 0.20 | 0.20 | 91 | 1014.0 |
| 20260904181710 | 23 | 174 | 3.2 | 11.3 | 0.00 | 0.20 | 0.20 | 93 | 1014.1 |
| 20260904180709 | 23 | 204 | 3.2 | 14.5 | 0.00 | 0.20 | 0.20 | 94 | 1014.3 |
| 20260904175706 | 23 | 215 | 3.2 | 17.7 | 0.00 | 0.20 | 0.20 | 95 | 1014.4 |
| 20260904174712 | 22 | 200 | 3.2 | 17.7 | 0.00 | 0.20 | 0.20 | 95 | 1014.4 |
| 20260904173704 | 22 | 191 | 3.2 | 11.3 | 0.00 | 0.20 | 0.20 | 95 | 1014.3 |
| 20260904172703 | 22 | 191 | 3.2 | 6.4 | 0.00 | 0.20 | 0.20 | 96 | 1014.4 |
| 20260904171704 | 22 | 191 | 3.2 | 11.3 | 0.00 | 0.20 | 0.20 | 96 | 1014.4 |
| 20260904170701 | 22 | 185 | 3.2 | 11.3 | 0.00 | 0.20 | 0.20 | 96 | 1014.5 |
| 20260904165701 | 21 | 179 | 0.0 | 8.0 | 0.00 | 0.20 | 0.20 | 97 | 1014.4 |
| 20260904164702 | 21 | 186 | 0.0 | 8.0 | 0.00 | 0.20 | 0.20 | 97 | 1014.6 |
| 20260904163700 | 21 | 174 | 0.0 | 0.0 | 0.00 | 0.20 | 0.20 | 97 | 1014.8 |
| 20260904162705 | 21 | 200 | 0.0 | 0.0 | 0.00 | 0.20 | 0.20 | 97 | 1014.8 |
| 20260904161708 | 20 | 200 | 0.0 | 3.2 | 0.00 | 0.20 | 0.20 | 97 | 1015.4 |
| 20260904160702 | 20 | 168 | 0.0 | 3.2 | 0.00 | 0.20 | 0.20 | 97 | 1015.5 |
| 20260904155656 | 20 | 168 | 0.0 | 3.2 | 0.00 | 0.20 | 0.20 | 97 | 1015.5 |
| 20260904154657 | 20 | 188 | 0.0 | 6.4 | 0.00 | 0.20 | 0.20 | 97 | 1016.0 |
| 20260904153657 | 20 | 183 | 0.0 | 6.4 | 0.03 | 0.20 | 0.20 | 97 | 1016.2 |
| 20260904152654 | 20 | 171 | 0.0 | 6.4 | 0.05 | 0.20 | 0.20 | 97 | 1016.3 |
| 20260904151657 | 20 | 196 | 3.2 | 8.0 | 0.08 | 0.20 | 0.20 | 97 | 1016.3 |
| 20260904150656 | 20 | 183 | 3.2 | 11.3 | 0.13 | 0.20 | 0.20 | 97 | 1016.4 |
| 20260904145657 | 20 | 175 | 3.2 | 11.3 | 0.13 | 0.20 | 0.20 | 97 | 1016.1 |
| 20260904144657 | 20 | 204 | 0.0 | 11.3 | 0.13 | 0.20 | 0.20 | 97 | 1016.4 |
| 20260904143654 | 20 | 177 | 3.2 | 8.0 | 0.13 | 0.18 | 0.18 | 97 | 1016.0 |
| 20260904142655 | 20 | 195 | 0.0 | 6.4 | 0.10 | 0.15 | 0.15 | 97 | 1016.0 |
| 20260904141653 | 20 | 194 | 3.2 | 14.5 | 0.08 | 0.13 | 0.13 | 97 | 1016.0 |
| 20260904140656 | 19 | 195 | 3.2 | 8.0 | 0.05 | 0.08 | 0.10 | 97 | 1016.0 |
| 20260904135652 | 19 | 182 | 3.2 | 14.5 | 0.08 | 0.08 | 0.08 | 97 | 1016.0 |
| 20260904134655 | 19 | 188 | 0.0 | 8.0 | 0.08 | 0.08 | 0.08 | 97 | 1016.5 |